Regional Weather Roundup
Issued by NWS Kansas City/Pleasant Hill, MO

Home | Current Version | Previous Version | Text Only | Print | Product List | Glossary On
Versions: 1 2 3 4 5 6 7 8 9 10 11 12 13 14 15 16 17 18 19 20 21 22 23 24 25 26 27 28 29 30 31 32 33 34 35 36 37 38 39 40 41 42 43 44 45 46 47 48 49 50
000
ASUS43 KEAX 280210
RWREAX

WEATHER ROUNDUP FOR EASTERN KANSAS AND NORTHWEST MISSOURI
NATIONAL WEATHER SERVICE KANSAS CITY/PLEASANT HILL MO
900 PM CDT SAT MAY 27 2017

KSZ040-057-103>105-MOZ028-029-037-043-280300-
...KANSAS CITY METROPOLITAN AREA...

CITY           SKY/WX    TMP DP  RH WIND       PRES   REMARKS
K.C. INTL      MOCLDY    68  63  84 CALM      29.85R
K.C. DOWNTOWN  CLEAR     69  62  78 CALM      29.84R
LEES SUMMIT    CLOUDY    66  63  90 CALM      29.84R
OLATHE - IXD   PTCLDY    66  61  84 NW7       29.85R
OLATHE - OJC   PTCLDY    68  63  84 N5        29.84S
LAWRENCE       CLOUDY    71  65  81 N6        29.86R

$$

MOZ001>008-011>017-020>025-030>033-038>040-044>046-053-054-280300-
...NORTHERN AND CENTRAL MISSOURI...

CITY           SKY/WX    TMP DP  RH WIND       PRES   REMARKS
ST. JOSEPH     PTCLDY    68  64  87 N7        29.86R
MOSBY          CLOUDY    68  61  77 CALM      29.84R
WARRENSBURG    CLOUDY    64  59  82 NW3       29.83S
WHITEMAN AFB   CLOUDY    64  64 100 N3        29.83R
CLINTON        CLOUDY    66  63  88 CALM      29.82S
SEDALIA        CLOUDY    65  64  97 NW6       29.83R
WARSAW         NOT AVBL
CHILLICOTHE      N/A     70  63  78 CALM      29.82R
KIRKSVILLE     CLOUDY    68  62  81 N7        29.80R

$$

MOZ041-047>049-056>058-063>065-088>090-097-280300-
...EASTERN AND SOUTHERN MISSOURI...

CITY           SKY/WX    TMP DP  RH WIND       PRES   REMARKS
ST. LOUIS INTL CLOUDY    69  60  73 VRB3      29.76R
SPIRIT OF STL  CLOUDY    65  62  90 W5        29.77R
COLUMBIA       CLOUDY    62  61  96 S8        29.79S
JEFFERSON CITY CLOUDY    65  60  84 S7        29.80F
ROLLA          RAIN      64  63  96 SE8       29.79F
SPRINGFIELD    LGT RAIN  66  63  90 VRB5G20   29.71F
BRANSON        LGT RAIN  64  64 100 CALM      29.84S
JOPLIN         CLOUDY    70  68  93 N10G17    29.75F
WEST PLAINS    LGT RAIN  59  57  93 VRB3      29.90S

$$

IAZ060-094-KSZ022-034>040-054-083-096-NEZ052-066-093-280300-
...KANSAS...SOUTHEAST NEBRASKA AND IOWA...

CITY           SKY/WX    TMP DP  RH WIND       PRES   REMARKS
TOPEKA         MOCLDY    68  63  84 N7        29.87R
MANHATTAN      PTCLDY    67  62  84 CALM      29.87R
EMPORIA        MOCLDY    71  64  78 N6        29.84R
CHANUTE        CLOUDY    71  61  70 N14G21    29.78F
WICHITA        CLEAR     73  61  65 N15       29.84R
OMAHA          CLOUDY    66  56  70 N5        29.89S
LINCOLN        CLEAR     65  58  78 NE5       29.92R
FALLS CITY     PTCLDY    67  59  75 N7        29.86R
LAMONI         CLEAR     65  60  84 NE8       29.85R
DES MOINES     MOCLDY    63  55  75 N6        29.87R

$$




USA.gov is the U.S. government's official web portal to all federal, state and local government web resources and services.